TITAN 3C TRANSTAGE DEB, 19592

Orbit data source: Space-Track

TITAN 3C TRANSTAGE DEB, 19592 is space debris in HEO originally from a launch on Tue, 21 Dec 1965 UTC launched from the Air Force Eastern Test Range (AFETR). Debris objects in space refer to the collection of defunct objects orbiting the Earth. Examples of debris include non-operational satellites, rocket bodies, and fragments generated from explosions, collisions, or faulty payload assembly.

Loading next visibility...
Identifier
19592, 1965-108AA
Orbit
HEO
Last TLE update
1 day ago
Origin
Manufacturer
Unknown
Mission
Spacecraft
Bus & Motor
Unknown
Mass
Unknown
Launch date (UTC)
1965-12-21 (59 years ago)
Launch vehicle
Unknown
Launch site
Air Force Eastern Test Range (AFETR)
Object type
Payload
Rocket body
Debris
Shape & HBR
Unknown
Radar Cross Section
Medium (>0.1 m² and <1 m²)

Expand to show TLE details & history

TLE from 1 day ago
0 TITAN 3C TRANSTAGE DEB
1 19592U 65108AA  25127.99497307  .00000011  00000-0  14941-3 0  9995
2 19592  26.9627  16.5081 6714777 312.5989  17.9392  2.84038783333820
Epoch: 2025-05-07T23:52Z
Definitive object data (Epoch: 2025-05-07T23:52:45.673Z)
Latitude
16.55498°
Longitude
-172.16479°
Altitude
4,710.273 km
Speed
7.278 km/s
True Right ascension
03h 28m 23s
True Declination
16° 29' 41"
Sunlit
Object was in daylight at TLE epoch
Visualization TLE readout
Latitude
18.07574°
Longitude
-68.16801°
Altitude
28,684.79 km
Speed
1.953 km/s
Apparent Right ascension
09h 57m 32s
Apparent Declination
12° 42' 32"
Sunlit
Object is in daylight
Visualization observer readout
Local Sidereal Time
13:28:03
Azimuth
254.761° W
Elevation
36.534°
Doppler factor
1
Orbital elements
Apogee altitude
28,831.177 km
Perigee altitude
542.114 km
Semi-major axis
21,064.782 km
Eccentricity
0.6714777
Inclination
26.9627°
RAAN
16.5081°
Arg. of periapsis
312.5989°
True anomaly
86.49422°
Mean anomaly
17.9392°
Eccentric anomaly
45.27284°
Mean motion
0.70992 °/min
BSTAR
0.00014941
Orbital period
507.1 mins
Loading maneuver chart data...
Loading SW <> Apogee altitude chart data...

TITAN 3C TRANSTAGE DEB Visibility forecast

Observer location: undefined°, undefined°

Span
Click to sort rows by Start time (UTC) header in descending order
Start Az.
Max El. time (UTC)
Max El. Az.
Max El.
End time (UTC)
End Az.
182 mins2025-05-09 05:19:24.873Z254.738° W2025-05-09 05:19:24.873Z254.738° W30.759°2025-05-09 08:21:24.873Z228.27° WSW
403 mins2025-05-09 17:58:24.873Z180.174° SSW2025-05-09 18:13:24.873Z123.372° SE30.211°2025-05-10 00:41:24.873Z110.221° ESE
121 mins2025-05-10 03:18:24.873Z282.108° WNW2025-05-10 04:48:24.873Z272.836° WNW23.576°2025-05-10 05:19:24.873Z271.535° WNW
|